TimeCDT,TemperatureF,Dew PointF,Humidity,Sea Level PressureIn,VisibilityMPH,Wind Direction,Wind SpeedMPH,Gust SpeedMPH,PrecipitationIn,Events,Conditions,WindDirDegrees,DateUTC
12:15 AM,60.8,39.2,45,29.97,10.0,SSE,12.7,-,N/A,,Scattered Clouds,150,2013-10-09 05:15:00
12:35 AM,60.8,39.2,45,29.98,10.0,SSE,11.5,-,N/A,,Scattered Clouds,150,2013-10-09 05:35:00
12:55 AM,59.0,39.2,48,29.98,10.0,SSE,11.5,17.3,N/A,,Clear,150,2013-10-09 05:55:00
1:15 AM,59.0,41.0,51,29.98,10.0,SSE,11.5,-,N/A,,Scattered Clouds,150,2013-10-09 06:15:00
1:35 AM,59.0,41.0,51,29.97,10.0,SSE,11.5,-,N/A,,Scattered Clouds,150,2013-10-09 06:35:00
1:55 AM,57.2,41.0,55,29.97,10.0,SSE,11.5,-,N/A,,Scattered Clouds,150,2013-10-09 06:55:00
2:15 AM,57.2,41.0,55,29.97,10.0,SSE,10.4,-,N/A,,Scattered Clouds,150,2013-10-09 07:15:00
2:35 AM,55.4,41.0,58,29.98,10.0,SSE,11.5,-,N/A,,Scattered Clouds,150,2013-10-09 07:35:00
2:55 AM,55.4,42.8,63,29.98,10.0,SSE,12.7,-,N/A,,Scattered Clouds,150,2013-10-09 07:55:00
3:15 AM,55.4,42.8,63,29.98,10.0,SSE,12.7,-,N/A,,Scattered Clouds,150,2013-10-09 08:15:00
3:35 AM,55.4,42.8,63,29.97,10.0,SSE,12.7,-,N/A,,Mostly Cloudy,150,2013-10-09 08:35:00
3:55 AM,55.4,42.8,63,29.97,10.0,SSE,11.5,-,N/A,,Mostly Cloudy,150,2013-10-09 08:55:00
4:15 AM,55.4,42.8,63,29.97,10.0,SE,9.2,-,N/A,,Mostly Cloudy,140,2013-10-09 09:15:00
4:35 AM,53.6,44.6,72,29.97,10.0,SE,10.4,-,N/A,,Mostly Cloudy,140,2013-10-09 09:35:00
4:55 AM,53.6,44.6,72,29.97,10.0,SE,9.2,-,N/A,,Mostly Cloudy,140,2013-10-09 09:55:00
5:15 AM,53.6,44.6,72,29.97,10.0,SE,11.5,-,N/A,,Mostly Cloudy,140,2013-10-09 10:15:00
5:35 AM,53.6,44.6,72,29.97,10.0,SSE,9.2,-,N/A,,Scattered Clouds,150,2013-10-09 10:35:00
5:55 AM,53.6,44.6,72,29.97,10.0,SSE,10.4,-,N/A,,Scattered Clouds,150,2013-10-09 10:55:00
6:15 AM,53.6,44.6,72,29.98,10.0,SSE,11.5,-,N/A,,Mostly Cloudy,150,2013-10-09 11:15:00
6:35 AM,53.6,44.6,72,29.99,10.0,SSE,10.4,-,N/A,,Mostly Cloudy,150,2013-10-09 11:35:00
6:55 AM,51.8,44.6,76,29.99,10.0,SSE,10.4,-,N/A,,Mostly Cloudy,150,2013-10-09 11:55:00
7:15 AM,51.8,46.4,82,29.99,10.0,SE,10.4,-,N/A,,Scattered Clouds,140,2013-10-09 12:15:00
7:35 AM,51.8,46.4,82,29.99,10.0,SSE,10.4,-,N/A,,Mostly Cloudy,150,2013-10-09 12:35:00
7:55 AM,51.8,46.4,82,29.99,10.0,SSE,10.4,-,N/A,,Scattered Clouds,150,2013-10-09 12:55:00
8:15 AM,51.8,46.4,82,30.00,10.0,SSE,11.5,-,N/A,,Clear,150,2013-10-09 13:15:00
8:35 AM,51.8,46.4,82,30.00,10.0,SSE,10.4,-,N/A,,Clear,150,2013-10-09 13:35:00
8:55 AM,53.6,46.4,77,30.01,10.0,SSE,11.5,-,N/A,,Clear,150,2013-10-09 13:55:00
9:15 AM,55.4,46.4,72,30.02,10.0,SSE,12.7,-,N/A,,Clear,150,2013-10-09 14:15:00
9:35 AM,57.2,46.4,67,30.02,10.0,SSE,12.7,-,N/A,,Clear,160,2013-10-09 14:35:00
9:55 AM,59.0,46.4,63,30.03,10.0,South,15.0,19.6,N/A,,Clear,170,2013-10-09 14:55:00
10:15 AM,60.8,46.4,59,30.03,10.0,SSE,15.0,-,N/A,,Clear,160,2013-10-09 15:15:00
10:35 AM,62.6,46.4,55,30.03,10.0,South,16.1,-,N/A,,Clear,170,2013-10-09 15:35:00
10:55 AM,66.2,44.6,46,30.03,10.0,South,17.3,-,N/A,,Clear,190,2013-10-09 15:55:00
11:15 AM,68.0,44.6,43,30.03,10.0,South,15.0,21.9,N/A,,Clear,180,2013-10-09 16:15:00
11:35 AM,69.8,44.6,40,30.03,10.0,South,12.7,-,N/A,,Clear,180,2013-10-09 16:35:00
11:55 AM,69.8,44.6,40,30.03,10.0,South,17.3,-,N/A,,Clear,190,2013-10-09 16:55:00
12:15 PM,71.6,42.8,35,30.02,10.0,South,15.0,19.6,N/A,,Clear,190,2013-10-09 17:15:00
12:35 PM,73.4,42.8,33,30.02,10.0,South,15.0,23.0,N/A,,Clear,190,2013-10-09 17:35:00
12:55 PM,73.4,42.8,33,30.02,10.0,South,16.1,25.3,N/A,,Clear,190,2013-10-09 17:55:00
1:15 PM,77.0,42.8,29,30.01,10.0,SSW,18.4,24.2,N/A,,Clear,200,2013-10-09 18:15:00
1:35 PM,77.0,41.0,28,30.00,10.0,South,16.1,24.2,N/A,,Clear,190,2013-10-09 18:35:00
1:55 PM,77.0,41.0,28,29.99,10.0,South,19.6,24.2,N/A,,Clear,180,2013-10-09 18:55:00
2:15 PM,77.0,41.0,28,29.98,10.0,SSW,18.4,27.6,N/A,,Clear,200,2013-10-09 19:15:00
2:35 PM,78.8,41.0,26,29.97,10.0,South,19.6,28.8,N/A,,Clear,180,2013-10-09 19:35:00
2:55 PM,78.8,41.0,26,29.96,10.0,SSW,15.0,20.7,N/A,,Clear,200,2013-10-09 19:55:00
3:15 PM,78.8,39.2,24,29.96,10.0,South,20.7,27.6,N/A,,Clear,170,2013-10-09 20:15:00
3:35 PM,80.6,39.2,23,29.96,10.0,South,19.6,27.6,N/A,,Clear,180,2013-10-09 20:35:00
4:15 PM,78.8,39.2,24,29.96,10.0,South,19.6,27.6,N/A,,Clear,170,2013-10-09 21:15:00
4:35 PM,78.8,37.4,23,29.96,10.0,South,17.3,-,N/A,,Clear,170,2013-10-09 21:35:00
4:55 PM,78.8,39.2,24,29.95,10.0,SSE,19.6,25.3,N/A,,Clear,150,2013-10-09 21:55:00
5:15 PM,78.8,39.2,24,29.94,10.0,South,18.4,26.5,N/A,,Clear,170,2013-10-09 22:15:00
5:35 PM,78.8,39.2,24,29.94,10.0,South,19.6,25.3,N/A,,Clear,170,2013-10-09 22:35:00
5:55 PM,78.8,41.0,26,29.94,10.0,SSE,17.3,24.2,N/A,,Clear,160,2013-10-09 22:55:00
6:15 PM,78.8,37.4,23,29.94,10.0,South,18.4,-,N/A,,Clear,170,2013-10-09 23:15:00
6:35 PM,77.0,39.2,26,29.93,10.0,SSE,16.1,20.7,N/A,,Clear,160,2013-10-09 23:35:00
7:15 PM,73.4,39.2,29,29.94,10.0,SSE,11.5,-,N/A,,Clear,160,2013-10-10 00:15:00
7:35 PM,71.6,41.0,33,29.94,10.0,SSE,8.1,-,N/A,,Clear,160,2013-10-10 00:35:00
7:55 PM,69.8,41.0,35,29.95,10.0,SSE,8.1,-,N/A,,Clear,150,2013-10-10 00:55:00
8:15 PM,68.0,42.8,40,29.95,10.0,SE,6.9,-,N/A,,Clear,140,2013-10-10 01:15:00
8:35 PM,68.0,42.8,40,29.96,10.0,SSE,8.1,-,N/A,,Clear,150,2013-10-10 01:35:00
8:55 PM,68.0,42.8,40,29.96,10.0,SSE,10.4,-,N/A,,Clear,150,2013-10-10 01:55:00
9:15 PM,68.0,42.8,40,29.97,10.0,SSE,13.8,-,N/A,,Clear,150,2013-10-10 02:15:00
9:35 PM,68.0,42.8,40,29.97,10.0,SE,11.5,-,N/A,,Clear,140,2013-10-10 02:35:00
9:55 PM,68.0,42.8,40,29.98,10.0,SSE,16.1,20.7,N/A,,Clear,150,2013-10-10 02:55:00
10:15 PM,68.0,42.8,40,29.98,10.0,SE,16.1,-,N/A,,Scattered Clouds,140,2013-10-10 03:15:00
10:35 PM,68.0,44.6,43,29.99,10.0,SSE,18.4,-,N/A,,Scattered Clouds,150,2013-10-10 03:35:00
10:55 PM,66.2,44.6,46,30.00,10.0,SSE,15.0,20.7,N/A,,Scattered Clouds,150,2013-10-10 03:55:00
11:15 PM,64.4,44.6,49,30.00,10.0,SSE,16.1,21.9,N/A,,Scattered Clouds,150,2013-10-10 04:15:00
11:35 PM,64.4,44.6,49,30.00,10.0,SE,13.8,-,N/A,,Scattered Clouds,140,2013-10-10 04:35:00